Zurück zum Katalog

STARLINK-3661

AktivKommunikationVLEO
NORAD 52129·PAYLOAD·🇺🇸 United States

Gestartet Mar 19, 2022 von Cape Canaveral Space Force Station

Loading…

Nächste Überflüge (nächste 24 Stunden)

TLE

AktuellSource: CelesTrak SupGP

Epoche: Sep 15, 2026, 01:39 UTC

1 52129C 22029AT  26258.06923611  .00035231  00000+0  19374-2 0  2582
2 52129  53.1605 297.0826 0001615  74.1310 269.4210 15.13556361    15

Verfolge STARLINK-3661 in Echtzeit mit AllMySat

Download on the App Store